DECAYED

OBJECT H, 49322 (Decayed)

Orbit data source: Space-Track

You're viewing an Uncataloged Satellite

Recently launched and/or uncataloged satellites may have evolving metadata. Metadata may include but not limited to: Owner, Maufacturer, Bus, Motor, and Mission.

OBJECT H, 49322 was a Chinese satellite in LEO that was launched on Thu, 14 Oct 2021 UTC via a CHANG ZHENG 2D launch vehicle from the Taiyaun Space Center, China (TSC). Unknown objects in Earth's orbit typically refer to objects detected orbiting the Earth but have not yet been identified or cataloged. These objects could be anything from previously untracked satellites, spent rocket stages, debris from satellite collisions, or even natural meteoroids temporarily captured by Earth's gravity. This object's orbit decayed before it could be identified.

Not visible in the next 10 days
Identifier
49322, 2021-091H
Orbit
Decayed
Country
Flag of CNCN / PRC
Related business
None
Manufacturer
Unknown
Mission
Decayed Commercial Communications
Bus & Motor
Unknown
Mass
Unknown
Launch date (UTC)
2021-10-14 (5 years ago)
Launch vehicle
CHANG ZHENG 2D
Launch site
Taiyaun Space Center, China (TSC)
Object type
Unknown
Shape & HBR
Box + 2 Pan, 1.0 m
Radar Cross Section
0.223 m², Medium (>0.1 m² and < 1m²)

Expand to show TLE details & history
Last TLE update: 1 year ago

TLE from 1 year ago
0 OBJECT H
1 49322U 21091H   25130.31990274  .09066777  25582-5  44549-3 0  9997
2 49322  97.3715 346.7302 0009580 256.2888 103.7346 16.42096743199779
Epoch: 2025-05-10T07:40Z
TLE epoch observation values (Epoch: 2025-05-10T07:40:39.596Z)
Latitude
-0.00007°
Longitude
3.20184°
Altitude
164.979 km
Speed
7.806 km/s
True Right ascension
23h 06m 55s
True Declination
0° 00' 00"
Sunlit
Object was in daylight at epoch
Visualization orbit readout
Latitude
Unknown
Longitude
Unknown
Altitude
Unknown
Speed
Unknown
Apparent Right ascension
Unknown
Apparent Declination
Unknown
Sunlit
N/A
Visualization observer readout
Local Sidereal Time
00:51:15
Azimuth
Unknown
Elevation
Unknown
Doppler factor
Unknown
Orbital elements
Apogee altitude
163.295 km
Perigee altitude
150.774 km
Semi-major axis
6,535.171 km
Eccentricity
0.00096
Inclination
97.3715°
RAAN
346.7302°
Arg. of periapsis
256.2888°
True anomaly
103.84121°
Mean anomaly
103.7346°
Eccentric anomaly
103.78791°
Mean motion
4.10826 °/min
Orbital period
87.63 mins
BSTAR
0.00044549
Loading maneuver chart data...
Computing Atmospheric mass density...
Loading historical data...
Loading historical data...
Loading historical data...
Loading historical data...
Loading historical data...
Loading historical data...
Loading historical data...

Documentation

Showing up to 5 results
|